Location: ???? ?????
(30.0052°N, 31.2891°E)
Time: 19:56:45
(UTC+00:00)

ACS3 Solar Sail - Pass Details

Date: 26 September 2024
Orbit: 960 x 1036 km, 97.4° (Epoch: 09 October)

Event Time Altitude Azimuth Distance (km) Brightness Sun altitude
Exits shadow 18:43:05 44° 304° (WNW) 1,396 2.8 -38.2°
Drops below altitude 10° 18:47:50 10° 338° (NNW) 2,839 4.7 -39.2°
Sets 18:50:25 0° 343° (NNW) 3,791 5.4 -39.7°
